Address 0x4e6b4569a3f191ee878235d263856a3cdc9536aa 4

 
 
Txn Hash Method
Block
From
To
Value [Txn Fee]
0x907a0191addde0cf9f7182cd8b00a9dc8f347084967641ccd1e25ab8a1581d32Transfer131501142021-12-03 4:56:3311 hrs 21 mins agoFeeder Finance: DeployerOUT0xfad3b5feac1aaf86b3f66d105f2fa9607164d86b0.3 BNB0.000105
0x324d2900c1e99a4d8ed74d8d8ba16b497d3a5f45da6dd1a6a563a7f92920a5edRevoke Role127537192021-11-18 15:06:3615 days 1 hr agoFeeder Finance: DeployerOUT 0x679a7129905c0393f94d06c1c72e525e7f6666260 BNB0.000168468
0xd358000ad055d65ff4884caa2be1f33e3a3234dfaa5792407f1360660fb1c9f8Revoke Role127537152021-11-18 15:06:2415 days 1 hr agoFeeder Finance: DeployerOUT 0x679a7129905c0393f94d06c1c72e525e7f6666260 BNB0.000168468
0x0ac99ad823bf5a8d04c6488ea7d676f28f0bfdf83f557a5b75725f2b2d33e928Grant Role127537092021-11-18 15:06:0515 days 1 hr agoFeeder Finance: DeployerOUT 0x679a7129905c0393f94d06c1c72e525e7f6666260 BNB0.00044526
0x89e62e7ef0738e1a72501057c833514de678e801bff31fb63e0da15f46e9872eGrant Role127537042021-11-18 15:05:5015 days 1 hr agoFeeder Finance: DeployerOUT 0x679a7129905c0393f94d06c1c72e525e7f6666260 BNB0.00044526
0x28b6576a9b0d43aeca4e45d192ef708c085edb779fb27b7c2d19efefaa557b73Transfer Ownersh...127537002021-11-18 15:05:3615 days 1 hr agoFeeder Finance: DeployerOUT 0x4e620094825693ac5cec951130bb60790ff088850 BNB0.000185472
0x2a4787306aff9ddb065810ed069fe0e04d15654e7b1c8735e02a3991b25993a2Add Target Vault127536962021-11-18 15:05:2415 days 1 hr agoFeeder Finance: DeployerOUT 0x679a7129905c0393f94d06c1c72e525e7f6666260 BNB0.000893166
0xad84acb8013e651c3bc5298cb1f0be81c18b9ee4ca68cae4be3230cf15bc080eSet Harvester127536922021-11-18 15:05:1215 days 1 hr agoFeeder Finance: DeployerOUT 0x4e620094825693ac5cec951130bb60790ff088850 BNB0.00017754
0x61f99f235635e22444f789f42cadf68f6ead4cc0b0778acb3df6f5f815d33bbb0x60806040127536872021-11-18 15:04:5715 days 1 hr agoFeeder Finance: DeployerOUT Contract Creation0 BNB0.019881432
0x5afaa32f7bd63360547054e85f89410ec94b5d00c05a02d7a6f2df4ad24d6dacSet Harvester127536652021-11-18 15:03:4515 days 1 hr agoFeeder Finance: DeployerOUT 0xcfcadf92c959d8a0b381c9bf9c105f399f4690e00 BNB0.00017754
0xb11bbd0362d479a6df89affffec2e2c6d0a451ea677adeda0c4a22ba82cf021c0x60806040127536592021-11-18 15:03:2615 days 1 hr agoFeeder Finance: DeployerOUT Contract Creation0 BNB0.019881432
0x95e46893d0df6905e43c24587410d7833d5f6d265b24e3e708594ae62a6c68d90x60806040127536532021-11-18 15:03:0515 days 1 hr agoFeeder Finance: DeployerOUT Contract Creation0 BNB0.0333366
0xfbf149d6227488cbb826727b0bb54ab3f7003c585675c1b84fd62c5257c374b2Revoke Role126187422021-11-13 16:52:3819 days 23 hrs agoFeeder Finance: DeployerOUT 0x59b8273288403136a302b06be5b3ec792f5b29f80 BNB0.000168468
0x283ea5078c5e8cf502cb7407b397756bb8d002450d88e1335d81e429fe7c6dffRevoke Role126187372021-11-13 16:52:2319 days 23 hrs agoFeeder Finance: DeployerOUT 0x59b8273288403136a302b06be5b3ec792f5b29f80 BNB0.000168468
0x2517f8c61c6a1b02212b3e30d616fbcc788b6f662c59c37a58de98b387c3a90bGrant Role126187332021-11-13 16:52:0919 days 23 hrs agoFeeder Finance: DeployerOUT 0x59b8273288403136a302b06be5b3ec792f5b29f80 BNB0.00044526
0x362372f7bdf2f8ed1974bc7a924337ce71713964d7f7afefb271262897f615dcGrant Role126187302021-11-13 16:51:5919 days 23 hrs agoFeeder Finance: DeployerOUT 0x59b8273288403136a302b06be5b3ec792f5b29f80 BNB0.00044526
0xf0b7d0fc1c50ce5e356f997c947758265cb801b36938fb8a57461fc19132074bTransfer Ownersh...126187272021-11-13 16:51:5019 days 23 hrs agoFeeder Finance: DeployerOUT 0x629b8be2e2170768b002cdeb54fefb807cb8b84c0 BNB0.000185472
0xe0587dd97b4f5f6e13f6a8b33b28b995631c382b9459da44debc5a53104b6d4cAdd Target Vault126187232021-11-13 16:51:3519 days 23 hrs agoFeeder Finance: DeployerOUT 0x59b8273288403136a302b06be5b3ec792f5b29f80 BNB0.0008931
0xe5e435aa648cb9caf4272c55daabb44221a54a5dfa09cf0eaf815c8a0b1c7716Set Harvester126187182021-11-13 16:51:2019 days 23 hrs agoFeeder Finance: DeployerOUT 0x629b8be2e2170768b002cdeb54fefb807cb8b84c0 BNB0.000178206
0x1ab844043ba481bf46e5edf8ba76ced96eed0a7b9bb2caf133d9b29bb81f82cc0x60806040126187162021-11-13 16:51:0819 days 23 hrs agoFeeder Finance: DeployerOUT Contract Creation0 BNB0.021367752
0x06cc8d45706a8e04c47e07841594d88772d67c53015f16bbc6c1dc59a4cfdf0b0x60806040126187132021-11-13 16:50:5919 days 23 hrs agoFeeder Finance: DeployerOUT Contract Creation0 BNB0.0333366
0x16b42356ff7fe323ebd2d658fad9b7a2f5d4216655937cc210dae82e2b73ca41Revoke Role126186772021-11-13 16:49:0119 days 23 hrs agoFeeder Finance: DeployerOUT 0x3d65f34d0dce2d22d0e1480dc99ffce773cdc9e60 BNB0.000168468
0x6311437d7894d251671f19e8757b5b403d01a8898c919819c16e67d4588a09fbRevoke Role126186722021-11-13 16:48:4619 days 23 hrs agoFeeder Finance: DeployerOUT 0x3d65f34d0dce2d22d0e1480dc99ffce773cdc9e60 BNB0.000168468
0x5a3e9e934c86a8aa44fb14e075b40b4adfebd358e36d3bce369894dc650a686aGrant Role126186692021-11-13 16:48:3519 days 23 hrs agoFeeder Finance: DeployerOUT 0x3d65f34d0dce2d22d0e1480dc99ffce773cdc9e60 BNB0.00044526
0xeecb846c10a28f757458bea35efaecb9b74183014989eae66aa1ca5f21a6f2f9Grant Role126186642021-11-13 16:48:2019 days 23 hrs agoFeeder Finance: DeployerOUT 0x3d65f34d0dce2d22d0e1480dc99ffce773cdc9e60 BNB0.00044526
[ Download CSV Export 

OVERVIEW

This is the deployer address for Feeder Finance's contract.

Latest 2 internal transactions
Parent Txn Hash Block From To Value
0xe8362e35c862815ea36acfa70dbb59c392670cb8a8a2bd69de645b413b6e6e5581482652021-06-09 13:43:58177 days 2 hrs ago Binance: WBNB TokenFeeder Finance: Deployer0.01 BNB
0xa2b101107c3b74523de74e02dc88890785260b84b9f053b202480d4aecdd310b78892652021-05-31 13:18:21186 days 2 hrs ago PancakeSwap: Router v2Feeder Finance: Deployer0.000985560691659523 BNB
[ Download CSV Export 
Loading

Contract Name:
0 BNB

Compiler Version
0

Optimization Enabled:
0 BNB

Other Settings:
-NA-
Block Transaction Gas Used Reward
Age Block Fee Address BC Fee Address Voting Power Jailed Incoming
Block Uncle Number Difficulty Gas Used Reward
Loading
Loading
Make sure to use the "Vote Down" button for any spammy posts, and the "Vote Up" for interesting conversations.